This is the latest recevied weather packets stored in our database for station/object OH2HCY-3. If no packets are shown the sender has not sent any weather packets the latest 10 day(s).
| Time | Temp. | Humidity | Pressure | Rain* | Wind** | Luminosity | Snow |
|---|---|---|---|---|---|---|---|
| 1787856493 | 12.78° C | 87% | 1026.3 hPa | - | - | - | - |
| 1787855342 | 12.78° C | 84% | 1026.3 hPa | - | - | - | - |
| 1787854337 | 13.33° C | 83% | 1026.2 hPa | - | - | - | - |
| 1787853178 | 13.89° C | 79% | 1026.1 hPa | - | - | - | - |
| 1787852089 | 15° C | 77% | 1026.1 hPa | - | - | - | - |
| 1787850917 | 15.56° C | 73% | 1026 hPa | - | - | - | - |
| 1787849756 | 16.67° C | 69% | 1026.1 hPa | - | - | - | - |
| 1787848717 | 17.78° C | 66% | 1026.2 hPa | - | - | - | - |
| 1787847737 | 18.89° C | 62% | 1026.1 hPa | - | - | - | - |
| 1787846702 | 19.44° C | 55% | 1026.3 hPa | - | - | - | - |
| 1787845661 | 20° C | 53% | 1026.4 hPa | - | - | - | - |
| 1787844683 | 20.56° C | 53% | 1026.5 hPa | - | - | - | - |
| 1787843612 | 20.56° C | 52% | 1026.6 hPa | - | - | - | - |
| 1787842608 | 20.56° C | 50% | 1026.7 hPa | - | - | - | - |
| 1787841617 | 20.56° C | 50% | 1026.7 hPa | - | - | - | - |
| 1787840649 | 20° C | 51% | 1026.9 hPa | - | - | - | - |
| 1787839472 | 20.56° C | 50% | 1026.9 hPa | - | - | - | - |
| 1787838417 | 20.56° C | 52% | 1027 hPa | - | - | - | - |
| 1787837282 | 20.56° C | 54% | 1027 hPa | - | - | - | - |
| 1787836257 | 20.56° C | 50% | 1027 hPa | - | - | - | - |
| 1787835057 | 21.11° C | 51% | 1027.1 hPa | - | - | - | - |
| 1787833862 | 21.11° C | 52% | 1027.2 hPa | - | - | - | - |
| 1787832708 | 20.56° C | 46% | 1027.2 hPa | - | - | - | - |
| 1787831682 | 21.11° C | 47% | 1027.3 hPa | - | - | - | - |
| 1787830693 | 21.11° C | 48% | 1027.3 hPa | - | - | - | - |
* Rain since midnight (hover to see other rain measurements)
** Current wind speed in m/s (hover to see current wind gust speed)